Date,TemperatureHighF,TemperatureAvgF,TemperatureLowF,DewpointHighF,DewpointAvgF,DewpointLowF,HumidityHigh,HumidityAvg,HumidityLow,PressureMaxIn,PressureMinIn,WindSpeedMaxMPH,WindSpeedAvgMPH,GustSpeedMaxMPH,PrecipitationSumIn
2013-1-1,71.0,58.8,49.5,66.6,57.5,48.1,99,96,85,30.10,29.89,6,2,12,0.53
2013-1-2,49.4,46.1,43.9,48.0,43.6,41.6,95,91,84,30.21,30.07,5,3,7,0.04
2013-1-7,58.6,53.5,46.2,46.8,43.2,40.1,86,69,51,30.32,30.15,5,1,6,0.01
2013-1-8,60.9,55.0,48.6,60.8,52.4,43.4,100,91,76,30.18,30.06,4,1,7,4.36
2013-1-9,64.7,62.4,60.2,64.7,62.3,59.9,100,100,99,30.15,30.06,4,2,6,3.07
2013-1-10,71.5,65.5,63.2,70.4,65.3,62.9,100,99,95,30.13,29.95,7,2,11,2.62
2013-1-11,71.1,67.5,63.7,71.1,67.3,63.7,100,99,95,30.08,29.97,2,1,4,1.14
2013-1-12,79.2,72.6,68.1,72.0,69.6,68.0,100,91,69,30.01,29.87,5,2,6,0.01
2013-1-13,77.4,64.7,48.2,72.9,62.8,47.1,97,94,81,30.08,29.80,6,2,13,0.98
2013-1-14,48.4,44.6,38.4,47.5,43.9,37.6,99,97,94,30.15,30.03,6,2,11,2.23
2013-1-15,46.9,43.8,40.3,46.6,43.5,39.8,99,99,98,30.06,29.94,4,2,6,0.08
2013-1-16,40.0,37.4,36.4,39.5,36.6,35.6,98,97,94,30.17,30.02,6,3,12,0.14
2013-1-17,54.0,43.3,36.6,38.6,36.5,32.0,97,79,49,30.43,30.17,7,2,10,0.00
2013-1-18,57.5,44.5,36.3,41.0,37.2,34.5,97,78,43,30.53,30.38,4,1,6,0.00
2013-1-19,67.8,49.4,35.0,50.4,43.6,34.5,99,83,53,30.38,30.21,3,0,4,0.00
2013-1-20,68.5,50.4,38.6,49.9,41.7,36.8,100,77,32,30.27,30.12,3,0,5,0.00
2013-1-21,68.5,52.7,40.5,51.4,44.3,39.8,99,77,42,30.22,30.13,4,0,5,0.00
2013-1-22,63.4,50.5,42.7,45.2,42.3,38.0,98,76,49,30.35,30.20,3,1,5,0.00
2013-1-23,72.4,55.2,39.7,53.2,47.2,39.2,100,78,41,30.39,30.27,2,0,4,0.00
2013-1-24,74.6,59.8,46.3,60.6,54.5,45.8,100,85,61,30.33,30.20,3,0,8,0.00
2013-1-25,76.3,62.4,51.1,62.2,57.2,50.8,100,85,60,30.24,30.13,3,1,7,0.00
2013-1-26,78.4,62.1,53.6,66.0,57.6,53.0,100,87,55,30.24,30.14,3,0,5,0.00
2013-1-27,75.3,62.2,50.3,63.5,57.9,50.0,100,87,63,30.24,30.15,6,2,8,0.00
2013-1-28,75.9,65.8,56.6,66.8,62.7,55.9,99,90,70,30.22,30.08,4,1,5,0.00
2013-1-29,81.2,70.9,64.1,71.3,67.5,63.8,100,90,68,30.08,29.83,5,2,6,0.00
2013-1-30,60.1,54.4,44.2,54.8,41.1,33.1,98,63,39,30.18,29.71,11,4,14,1.75
2013-1-31,62.0,48.6,34.7,42.5,34.8,27.4,98,64,28,30.34,30.18,3,1,4,0.00
2013-2-1,66.6,51.3,41.1,44.0,41.4,38.4,96,72,39,30.41,30.28,3,0,5,0.00
2013-2-2,70.8,55.2,41.1,54.3,47.9,40.0,98,79,47,30.32,30.16,4,1,6,0.00
2013-2-3,70.3,55.5,43.5,55.6,42.8,30.3,100,69,23,30.28,30.10,5,1,11,0.00
2013-2-4,63.0,52.7,42.7,55.6,49.0,40.2,98,88,59,30.10,29.93,3,1,5,0.09
2013-2-5,65.4,58.5,56.2,61.5,57.9,55.6,100,98,86,30.01,29.92,2,1,3,0.00
2013-2-6,66.0,61.9,57.9,62.9,59.6,57.9,100,92,82,30.10,29.97,5,2,7,0.18
2013-2-7,67.9,60.8,54.1,61.3,58.3,53.8,100,92,78,29.95,29.86,3,1,5,1.77
2013-2-8,70.8,61.5,52.5,61.7,57.4,49.8,100,88,63,30.16,30.02,6,2,9,0.00
2013-2-9,61.6,60.2,56.3,60.2,56.7,51.8,95,88,81,30.21,30.01,5,3,8,0.00
2013-2-10,77.0,70.1,62.1,72.1,67.5,61.5,98,92,85,29.97,29.86,4,2,6,0.06
2013-2-11,58.4,56.9,56.1,56.1,55.6,54.3,99,95,87,30.13,30.00,3,1,7,0.84
2013-2-12,70.4,61.7,57.2,69.4,61.7,57.2,100,100,96,29.92,29.72,4,2,6,0.15
2013-2-16,52.5,52.1,51.4,25.7,24.4,22.3,36,34,31,30.24,30.22,7,6,12,0.00
2013-2-17,35.1,34.1,33.3,33.0,32.2,30.2,96,93,84,30.30,30.29,0,0,2,0.00
2013-2-18,65.4,63.1,56.1,61.9,57.6,51.7,90,82,72,30.16,29.95,5,3,10,0.00
2013-2-19,67.1,59.2,49.5,53.4,40.8,29.8,92,54,26,30.22,30.09,6,3,12,0.23
2013-2-20,58.3,53.3,40.9,40.8,33.5,27.5,72,48,34,30.25,30.00,7,3,9,0.00
2013-2-21,72.0,65.6,54.5,69.9,61.0,40.1,97,86,58,30.00,29.74,5,3,10,0.38
2013-2-22,68.7,62.3,54.7,59.5,54.5,50.7,97,77,55,29.98,29.86,2,1,6,0.57
2013-2-23,61.6,56.1,51.8,55.9,53.4,51.0,98,91,79,29.96,29.85,3,1,6,0.35
2013-2-24,64.4,55.7,49.1,60.4,53.1,47.4,99,91,75,29.96,29.68,6,1,6,2.39
2013-2-25,66.1,62.7,58.4,65.5,59.7,41.8,99,91,53,29.74,29.42,5,2,8,2.97
2013-2-26,59.8,54.0,47.6,47.1,41.8,36.0,88,64,50,29.92,29.57,6,3,11,0.00
2013-2-27,71.1,61.4,46.9,52.4,46.4,41.7,98,61,35,30.04,29.92,4,1,6,0.00
2013-2-28,52.4,48.9,45.8,39.3,35.0,30.9,76,59,45,30.16,30.07,6,2,8,0.00
2013-3-1,58.4,52.5,40.6,37.5,34.5,31.1,77,51,36,30.17,30.07,8,4,14,0.00
2013-3-2,46.9,40.4,30.8,34.6,29.9,27.1,91,67,51,30.27,30.16,6,3,12,0.00
2013-3-3,57.7,40.6,29.8,33.4,29.5,28.0,93,67,39,30.30,30.15,3,1,4,0.00
2013-3-4,72.3,65.7,50.2,58.7,55.8,47.7,91,71,56,30.08,29.91,5,2,7,0.00
2013-3-5,74.0,66.2,53.7,64.7,52.4,37.0,93,64,36,30.19,29.91,8,3,11,0.00
2013-3-6,63.7,55.9,38.1,33.8,29.5,26.7,74,38,26,30.35,30.19,5,3,9,0.00
2013-3-11,59.7,51.4,44.1,44.3,42.4,39.1,97,74,47,30.03,29.90,7,4,17,0.57
2013-3-12,68.8,60.0,48.5,44.8,39.8,35.0,82,49,34,30.21,30.09,5,2,9,0.00
2013-3-13,68.0,59.0,41.2,44.1,31.8,22.5,95,40,18,30.40,30.21,7,3,13,0.00
2013-3-14,64.7,51.7,38.3,35.7,32.7,28.8,87,50,30,30.45,30.36,3,1,4,0.00
2013-3-20,71.9,60.9,48.2,50.7,40.2,30.4,92,51,24,30.18,30.01,6,2,12,0.05
2013-3-21,48.0,46.8,44.7,39.3,35.6,33.6,76,65,59,30.04,30.00,0,0,2,0.00
2013-3-22,78.9,68.6,59.9,69.9,64.2,57.0,95,86,73,29.83,29.73,3,1,8,0.00
2013-3-23,70.5,68.6,65.9,70.5,67.8,64.7,100,97,93,29.80,29.55,2,0,4,0.02
2013-3-24,70.0,62.0,52.1,69.7,43.5,31.9,99,54,32,29.98,29.59,10,5,15,0.01
2013-3-25,57.7,50.1,38.2,31.8,27.3,22.0,76,44,26,30.27,30.13,7,4,15,0.00
2013-3-26,55.7,47.6,33.7,33.5,27.2,22.2,82,46,32,30.42,30.27,6,2,11,0.00
2013-3-27,65.4,54.0,34.7,39.7,32.4,29.2,87,47,27,30.45,30.26,3,1,6,0.00
2013-3-28,72.6,56.4,37.6,46.0,41.6,36.8,98,63,33,30.35,30.21,3,1,5,0.00
2013-3-29,78.1,68.4,45.4,56.6,52.9,43.8,96,60,43,30.31,30.15,3,1,5,0.00
2013-3-30,78.3,71.1,53.3,62.0,58.8,52.2,96,67,47,30.17,30.00,2,1,4,0.00
2013-3-31,59.7,58.7,57.3,58.3,57.5,56.5,97,96,94,30.03,29.99,0,0,2,0.00
2013-4-3,65.2,61.4,55.0,65.2,60.2,53.0,100,96,88,29.95,29.75,5,1,6,1.39
2013-4-11,67.7,59.7,51.4,61.3,55.8,50.0,98,87,79,29.84,29.66,6,3,10,0.76
2013-4-12,76.0,59.3,45.8,54.0,49.0,44.0,99,74,33,29.98,29.84,4,1,8,0.00
2013-4-13,77.0,64.6,49.9,53.2,50.1,46.5,95,64,35,30.02,29.85,4,2,9,0.00
2013-4-14,76.8,68.6,60.8,66.5,62.8,60.5,99,83,65,29.81,29.72,4,1,8,1.01
2013-4-15,80.2,70.2,59.4,74.4,68.6,58.8,100,95,82,29.94,29.79,2,1,6,0.01
2013-4-16,85.3,77.5,73.0,75.8,73.6,72.2,98,89,73,30.05,29.93,4,2,8,0.00
2013-4-17,86.6,78.1,72.7,76.2,73.2,71.3,96,85,69,30.05,29.91,5,2,9,0.00
2013-4-18,85.5,77.7,58.7,75.8,71.9,57.3,95,83,67,29.91,29.75,7,2,12,0.59
2013-4-19,61.8,53.2,45.0,57.6,46.0,40.8,98,78,48,30.18,29.86,8,3,11,0.12
2013-4-20,71.4,55.4,40.0,51.3,44.4,39.0,99,72,35,30.26,30.09,3,1,8,0.00
2013-4-21,74.8,60.6,44.9,54.6,49.5,44.4,99,71,44,30.20,30.08,3,1,7,0.00
2013-4-24,70.4,64.3,57.8,70.0,61.8,55.4,99,92,84,30.17,29.96,7,2,8,2.35
2013-4-25,77.6,61.7,53.2,62.6,55.1,51.5,95,81,49,30.31,30.17,3,1,7,0.00
2013-4-30,71.0,68.5,66.4,68.6,67.0,65.6,98,95,90,29.87,29.81,2,0,5,0.26
2013-5-1,80.8,70.3,65.9,72.4,67.9,65.0,100,93,72,29.88,29.79,3,0,4,0.69
2013-5-2,77.3,69.5,64.0,70.5,66.7,63.1,99,91,72,29.94,29.84,3,0,7,0.65
2013-5-3,67.8,58.2,51.8,67.5,56.0,45.2,99,93,78,29.99,29.88,6,3,12,0.02
2013-5-22,80.3,72.5,66.5,73.5,70.1,66.0,99,92,76,29.97,29.88,3,0,4,1.45
2013-5-23,92.9,76.5,65.9,78.7,71.7,64.7,100,87,59,30.04,29.93,5,0,6,0.35
2013-5-24,92.0,77.3,65.1,77.5,71.3,64.8,100,84,56,30.13,30.00,2,0,4,0.00
2013-5-25,87.8,74.8,66.7,72.1,66.8,61.5,95,78,57,30.20,30.11,3,1,7,0.00
2013-5-26,86.6,75.1,66.8,73.0,68.8,66.5,100,82,55,30.16,30.07,3,1,5,0.00
2013-5-27,91.8,76.4,65.2,72.9,68.9,64.9,100,81,48,30.10,29.98,2,1,7,0.15
2013-5-28,86.9,76.0,67.1,75.1,70.6,66.7,100,85,60,30.05,29.95,4,1,8,0.00
2013-6-9,93.0,81.9,71.2,76.4,73.3,68.2,99,77,50,29.95,29.85,4,1,5,0.42
2013-6-10,92.8,81.4,73.2,80.5,76.2,72.9,100,86,63,30.00,29.93,2,0,4,0.00
2013-7-7,82.0,76.4,73.1,77.7,74.9,72.6,99,95,85,30.07,30.00,3,0,4,1.71
2013-7-8,92.9,78.1,71.8,79.9,75.3,71.8,100,92,64,30.14,30.03,3,0,3,0.00
2013-7-9,92.4,81.6,72.2,80.3,75.8,72.2,100,84,59,30.17,30.04,1,0,3,0.00
2013-7-10,92.9,78.9,74.1,79.6,76.2,73.8,100,92,60,30.09,30.06,2,0,3,0.00
2013-7-17,91.4,85.1,75.9,79.3,75.4,71.5,96,74,56,30.19,30.08,4,2,7,0.00
2013-7-18,91.1,78.7,72.2,78.6,74.6,70.8,100,88,61,30.15,29.98,4,0,6,0.77
2013-7-19,93.4,81.1,72.0,80.2,74.6,69.9,100,83,50,30.04,29.91,2,0,5,0.00
2013-7-20,93.2,80.1,72.7,79.1,75.0,72.4,100,87,57,29.98,29.93,2,0,2,0.00
2013-7-21,83.3,78.4,72.5,78.6,75.6,72.5,100,91,79,30.06,29.97,2,0,4,1.32
2013-7-22,92.2,81.0,72.4,82.1,77.2,72.1,100,89,65,30.04,29.97,3,0,5,0.00
2013-7-23,93.0,84.1,76.1,81.2,78.0,75.8,100,83,62,30.04,29.90,3,1,6,0.00
2013-7-24,93.1,83.7,77.0,80.3,77.7,76.1,98,83,60,29.97,29.86,3,1,6,0.00
2013-7-25,94.0,82.5,74.6,81.1,76.3,73.4,97,83,62,30.02,29.90,2,0,4,0.00
2013-7-26,91.6,76.4,71.0,76.5,72.9,70.7,100,90,58,30.05,30.00,1,0,2,0.00
2013-7-27,80.8,77.9,74.9,78.5,76.8,73.3,99,96,87,29.90,29.83,4,0,6,0.45
2013-7-28,92.4,80.9,72.6,79.3,75.7,72.5,100,86,60,29.99,29.88,2,0,4,0.01
2013-7-29,96.6,82.9,73.6,80.7,76.6,73.1,100,84,49,30.08,29.98,2,0,5,0.00
2013-7-30,95.7,83.7,75.0,80.2,77.1,74.4,100,83,57,30.13,30.04,2,0,4,0.00
2013-8-4,92.9,81.2,75.6,81.4,75.9,74.1,95,84,67,30.02,29.95,2,0,4,0.00
2013-8-5,95.9,83.6,74.3,81.0,77.2,73.8,100,83,55,30.04,29.93,3,1,4,0.00
2013-8-6,97.6,85.0,75.5,80.7,77.8,75.1,100,81,51,29.99,29.88,2,0,5,0.00
2013-8-7,88.6,78.9,75.7,80.5,77.3,75.3,100,95,77,29.96,29.90,2,0,3,0.00
2013-8-9,77.7,77.4,77.1,77.4,77.0,76.5,100,99,98,29.99,29.92,1,0,2,0.70
2013-8-10,95.6,83.3,75.4,82.0,77.5,75.2,100,85,56,30.05,29.96,4,0,7,0.01
2013-8-11,76.2,75.3,74.9,75.6,75.0,74.6,100,99,98,30.04,30.02,0,0,2,0.00
2013-8-14,78.9,76.5,74.1,78.6,75.8,73.8,100,98,94,29.98,29.89,2,0,4,1.42
2013-8-15,88.8,78.2,71.0,78.8,74.4,71.0,100,89,61,29.97,29.89,3,0,5,0.00
2013-8-16,75.4,73.5,71.9,74.5,73.1,71.6,100,99,96,29.94,29.90,1,0,2,0.00
2013-9-21,73.2,73.2,73.2,73.2,73.2,73.2,100,100,100,29.76,29.76,0,0,2,0.00
2013-12-8,47.6,46.0,43.7,47.6,45.9,43.4,100,100,99,30.10,30.01,3,1,5,1.55
2013-12-9,48.8,47.2,44.7,48.8,47.2,44.4,100,100,99,30.13,30.06,6,1,7,0.22
2013-12-10,48.5,40.0,36.7,43.9,38.0,34.6,99,93,69,30.37,30.13,6,4,12,0.01
2013-12-21,73.6,73.0,67.3,72.0,71.2,64.3,95,94,86,29.78,29.75,4,2,7,0.01
2013-12-22,66.6,60.0,56.8,63.6,58.7,56.0,98,96,84,29.99,29.78,3,1,4,0.16